KC9KZ-13 Weather Reports


time (UTC)temp
C
wind
direction
speed
KPH
gust
KPH
rain 1hr
cm
rain 24hr
cm
rain mn
cm
humidity
%
barometer
mb
20260505183946 19 195 22.5 32.2 0.00 0.00 0.00 35 1009.9
20260505180948 20 238 11.3 30.6 0.00 0.00 0.00 35 1010.1
20260505173933 18 252 19.3 32.2 0.00 0.00 0.00 37 1010.1
20260505170940 17 194 16.1 29.0 0.00 0.00 0.00 39 1010.0
20260505163943 17 259 11.3 29.0 0.00 0.00 0.00 41 1009.8
20260505161003 17 210 19.3 27.4 0.00 0.00 0.00 42 1009.6
20260505151000 15 231 3.2 9.7 0.00 0.00 0.00 45 1009.2
20260505123935 8 48 8.0 8.0 0.00 0.00 0.00 54 1008.7
20260505120933 10 119 0.0 8.0 0.00 0.00 0.00 54 1008.5
20260505113931 8 316 4.8 6.4 0.00 0.00 0.00 53 1008.4
20260505110943 10 51 8.0 8.0 0.00 0.00 0.00 52 1008.3
20260505100932 11 13 4.8 4.8 0.00 0.00 0.00 52 1009.5
20260505093934 11 144 4.8 8.0 0.00 0.00 0.00 51 1009.8
20260505090942 13 165 3.2 4.8 0.00 0.00 0.00 45 1009.8
20260505083947 13 315 6.4 8.0 0.00 0.00 0.00 47 1010.0
20260505080934 13 236 4.8 8.0 0.00 0.00 0.00 46 1010.4
20260505073947 14 272 4.8 6.4 0.00 0.00 0.00 44 1010.3
20260505071002 15 256 6.4 8.0 0.00 0.00 0.00 41 1010.2
20260505063942 16 247 9.7 11.3 0.00 0.00 0.00 37 1010.1
20260505060943 16 220 8.0 11.3 0.00 0.00 0.00 36 1009.9
20260505053927 17 219 6.4 8.0 0.00 0.00 0.00 35 1010.1
20260505051000 17 185 6.4 9.7 0.00 0.00 0.00 35 1010.2
20260505040944 18 199 9.7 16.1 0.00 0.00 0.00 33 1009.8
20260505033934 19 211 9.7 17.7 0.00 0.00 0.00 31 1009.4
20260505030942 20 194 11.3 17.7 0.00 0.00 0.00 29 1009.1
20260505023940 18 167 14.5 20.9 0.00 0.00 0.00 35 1008.8
20260505020948 19 165 14.5 20.9 0.00 0.00 0.00 34 1008.7
20260505013939 20 176 17.7 22.5 0.00 0.00 0.00 35 1008.5
20260505011004 20 157 16.1 29.0 0.00 0.00 0.00 33 1008.6
20260505003936 20 164 16.1 24.1 0.00 0.00 0.00 35 1008.7
20260505000945 22 177 14.5 29.0 0.00 0.00 0.00 31 1008.5
20260504233935 22 149 19.3 32.2 0.00 0.00 0.00 29 1008.6
20260504230944 22 169 25.7 37.0 0.00 0.00 0.00 28 1008.6
20260504223931 22 151 22.5 30.6 0.00 0.00 0.00 30 1008.6
20260504220935 22 153 22.5 32.2 0.00 0.00 0.00 28 1009.9
20260504213946 22 213 12.9 38.6 0.00 0.00 0.00 27 1010.3
20260504210959 22 158 22.5 33.8 0.00 0.00 0.00 26 1010.6
20260504203935 22 162 16.1 35.4 0.00 0.00 0.00 26 1010.6
20260504200925 22 177 25.7 32.2 0.00 0.00 0.00 25 1011.0
20260504193931 21 164 24.1 33.8 0.00 0.00 0.00 28 1010.6
20260504190933 21 165 24.1 30.6 0.00 0.00 0.00 30 1010.9